一网星座-0632星 (ONEWEB-0632)

导读 | 豆包AI

ONEWEB-0632是隶属于英国一网(OneWeb)全球卫星互联网星座的低轨宽带通信卫星,于2023年3月26日发射,这颗卫星单颗重约147.5公斤,配备Ku波段相控阵天线,运行于低地球轨道,可规避对静止轨道卫星信号干扰,旨在为全球提供宽带互联网接入服务,是OneWeb完成600余颗低轨星座组网部署计划的组成部分,卫星设计服役期满后会主动安全离轨。

基本信息
目录编号:
56073
目录名称:
ONEWEB-0632
国际标识:
2023-043AD
轨道中心:
EARTH
卫星名称:
一网星座-0632星
卫星全名:
一网星座-0632星 (ONEWEB-0632)
卫星状态:
在轨 (已飞行1084 天)
发射日期:
2023-03-26 UTC
国别 :
英国 (GB)
星等 :
--
轨道信息
数据来源 国际轨道数据 AOE轨道数据
星历时间 2026-03-14T06:41:51+0800
10小时前
查看轨道信息
2026-03-07T20:00:00+0800
6天前
查看轨道信息
半长轴 7579.912km 7579.915km
偏心率 0.0001466 0.0001888
轨道倾角 87.894° 87.893°
近地点辐角 97.400° 94.751°
升交点赤经 278.231° 279.518°
平近点角 262.730° 356.018°
近地点 1200.663km 1200.346km
远地点 1202.887km 1203.21km
周期 109.460分钟 109.460分钟
每日圈数 13.155476 13.155467
详细信息
平衡模式:
三轴稳定
覆盖范围:
全球
运营商:
一网卫星公司
运营商所在国:
英国
制造商(研发单位):
一网卫星公司
制造商所在国:
英国
使用方式:
暂无
卫星简介
OneWeb卫星网络由648颗重约125公斤的微型卫星组成,运行在1200公里的轨道上。 每颗卫星都能够提供至少每秒8千兆位的吞吐量,以使用其高吞吐量的Ku频段有效载荷为家庭和移动平台提供互联网接入。该卫星仍在工作。
2D轨道图
3D轨道图
轨道高度分析图
轨道倾角分析图
轨道综合分析图
查看轨道综合分析图